Orebro current weather conditions

sailwx.info

Wind from 030 at 6 knots

Air temperature -0.0° C
Visibility: greater than 0.1 NM
Present weather: Fog.

Last reported at 2017-Nov-18 23:50 UTC.
Time now 2017-Nov-19 01:16 UTC

Location: N 59°13' E 015°02'.
View on Google Maps.

See reports from other nearby stations

  
Tides and Currents Weather Stations Pressure Air Temp Water Temp Dewpoint Dewpoint Depression Visibility Wind Speed Wind Dir Waves Ship Positions
date/time (UTC)wind fromknots sea level pressurealtimeterstation pressurevisibilityair tempwater tempwave heightnotes
2017-Nov-18 23:50 030 6 0.1-0.0 Fog.
2017-Nov-18 23:20 020 5 0.1-1.0 Fog.
2017-Nov-18 22:50 020 5 0.1-0.0 Fog.
2017-Nov-18 22:20 020 6 0.3-1.0 Fog.
2017-Nov-18 21:50 030 6 3.2-0.0 Mist.
2017-Nov-18 21:20 030 5 3.8-1.0 Mist.
2017-Nov-18 20:50 100 4 5.4-0.0
2017-Nov-18 20:20 100 4 5.4-0.0
2017-Nov-18 19:50 100 4 5.4 1.0
2017-Nov-18 19:20 120 2 5.4 1.0
2017-Nov-18 18:50 140 2 5.4 1.0
2017-Nov-18 18:20 210 4 3.2 1.0 Mist.
2017-Nov-18 17:50 210 4 5.4 1.0
2017-Nov-18 17:20 220 5 5.4-0.0
2017-Nov-18 16:50 200 4 5.4-0.0
2017-Nov-18 16:20 200 5 5.4 1.0
2017-Nov-18 15:50 220 5 5.4 1.0
2017-Nov-18 15:20 200 5 5.4 2.0
2017-Nov-18 14:50 190 5 5.4 2.0
2017-Nov-18 14:20 210 4 5.4 3.0
2017-Nov-18 13:50 230 5 5.4 4.0
2017-Nov-18 13:20 230 4 5.4 5.0
2017-Nov-18 12:50 230 6 5.4 5.0
2017-Nov-18 12:20 210 6 5.4 5.0
2017-Nov-18 11:50 230 8 5.4 5.0
2017-Nov-18 11:20 230 6 5.4 5.0
2017-Nov-18 10:50 230 7 5.4 5.0
2017-Nov-18 10:20 230 8 5.4 5.0
2017-Nov-18 09:50 230 9 5.4 5.0
2017-Nov-18 09:20 230 8 5.4 5.0
2017-Nov-18 08:50 230 11 5.4 4.0
2017-Nov-18 08:20 240 8 5.4 4.0
2017-Nov-18 07:50 230 13 5.4 5.0 Light rain.
2017-Nov-18 07:20 230 13 5.4 5.0 Light drizzle.
2017-Nov-18 06:50 230 9 5.4 5.0 Light rain.
2017-Nov-18 06:20 220 11 3.2 5.0 Drizzle.
2017-Nov-18 05:50 230 15 3.2 5.0 Light rain.
2017-Nov-18 05:20 230 13 5.4 6.0
2017-Nov-18 04:50 220 14 5.4 6.0
2017-Nov-18 04:20 220 17 5.4 6.0
2017-Nov-18 03:50 210 14 5.4 6.0
2017-Nov-18 03:20 220 13 5.4 6.0
2017-Nov-18 02:50 220 15 5.4 7.0 Light drizzle.
2017-Nov-18 02:20 210 14 5.4 7.0
2017-Nov-18 01:50 220 17 5.4 7.0
2017-Nov-18 01:20 220 13 5.4 7.0 Drizzle.
2017-Nov-18 00:50 230 17 5.4 7.0 Light drizzle.
2017-Nov-18 00:20 230 17 5.4 7.0
2017-Nov-17 23:50 230 15 5.4 7.0
2017-Nov-17 23:20 220 13 5.4 7.0
2017-Nov-17 22:50 230 15 5.4 7.0
2017-Nov-17 22:20 240 15 5.4 7.0
2017-Nov-17 21:50 240 15 5.4 7.0
2017-Nov-17 21:20 240 14 5.4 7.0
2017-Nov-17 20:50 230 17 5.4 7.0
2017-Nov-17 20:20 230 18 gusting 31 5.4 8.0
2017-Nov-17 19:50 230 18 5.4 7.0
2017-Nov-17 19:20 240 19 gusting 28 5.4 7.0
2017-Nov-17 18:50 230 18 5.4 8.0
2017-Nov-17 18:20 240 18 5.4 8.0
2017-Nov-17 17:50 230 15 gusting 27 5.4 7.0
2017-Nov-17 17:20 240 15 5.4 8.0
2017-Nov-17 16:50 230 18 5.4 8.0
2017-Nov-17 16:20 240 18 gusting 31 5.4 8.0
2017-Nov-17 15:50 220 17 gusting 27 5.4 7.0
2017-Nov-17 15:20 240 17 5.4 8.0
2017-Nov-17 14:50 240 18 gusting 29 5.4 8.0
2017-Nov-17 14:20 240 17 gusting 27 5.4 8.0
2017-Nov-17 13:50 230 18 5.4 8.0
2017-Nov-17 13:20 250 18 5.4 8.0
2017-Nov-17 12:50 240 18 gusting 29 5.4 8.0
2017-Nov-17 12:20 250 18 gusting 28 5.4 7.0
2017-Nov-17 11:50 250 19 gusting 33 5.4 7.0
2017-Nov-17 11:20 240 17 gusting 28 5.4 7.0
2017-Nov-17 10:50 240 14 5.4 7.0
2017-Nov-17 10:20 240 15 5.4 7.0
2017-Nov-17 09:50 240 12 5.4 6.0
2017-Nov-17 09:20 240 13 5.4 6.0
2017-Nov-17 08:50 240 8 5.4 5.0
2017-Nov-17 08:20 230 11 5.4 4.0
2017-Nov-17 07:50 250 11 5.4 4.0
2017-Nov-17 07:20 240 9 5.4 4.0
2017-Nov-17 06:50 220 12 5.4 4.0
2017-Nov-17 06:20 230 9 5.4 4.0
2017-Nov-17 05:50 230 9 5.4 4.0
2017-Nov-17 05:20 250 11 5.4 4.0
2017-Nov-17 04:50 230 12 5.4 4.0
2017-Nov-17 04:20 240 11 5.4 4.0
2017-Nov-17 03:50 230 12 5.4 4.0
2017-Nov-17 03:20 240 13 5.4 4.0
2017-Nov-17 02:50 240 13 5.4 5.0
2017-Nov-17 02:20 240 12 5.4 5.0
2017-Nov-17 01:50 240 13 5.4 5.0
2017-Nov-17 01:20 230 12 5.4 5.0